This is the latest recevied weather packets stored in our database for station/object KD9IXX-13. If no packets are shown the sender has not sent any weather packets the latest 10 day(s).
| Time | Temp. | Humidity | Pressure | Rain* | Wind** | Luminosity | Snow |
|---|---|---|---|---|---|---|---|
| 1777498202 | 12.22° C | 78% | 1015.2 hPa | 0 mm | - | 154 W/m² | - |
| 1777497902 | 12.22° C | 77% | 1015.6 hPa | 0 mm | - | 180 W/m² | - |
| 1777497602 | 12.22° C | 76% | 1015.2 hPa | 0 mm | - | 221 W/m² | - |
| 1777497302 | 12.78° C | 71% | 1015.4 hPa | 0 mm | - | 171 W/m² | - |
| 1777497002 | 12.78° C | 66% | 1015.6 hPa | 0 mm | - | 207 W/m² | - |
| 1777496703 | 12.22° C | 61% | 1015.4 hPa | 0 mm | - | 127 W/m² | - |
| 1777496402 | 12.22° C | 62% | 1015.5 hPa | 0 mm | - | 64 W/m² | - |
| 1777496103 | 12.22° C | 62% | 1015.5 hPa | 0 mm | - | 31 W/m² | - |
| 1777495802 | 12.22° C | 63% | 1015.5 hPa | 0 mm | - | 27 W/m² | - |
| 1777495502 | 12.78° C | 62% | 1015.3 hPa | 0 mm | - | 46 W/m² | - |
| 1777495202 | 13.33° C | 61% | 1015.4 hPa | 0 mm | - | 65 W/m² | - |
| 1777494902 | 13.89° C | 61% | 1015.5 hPa | 0 mm | - | 201 W/m² | - |
| 1777494602 | 13.89° C | 59% | 1015.3 hPa | 0 mm | - | 328 W/m² | - |
| 1777494302 | 13.33° C | 62% | 1015.6 hPa | 0 mm | - | 288 W/m² | - |
| 1777494002 | 12.78° C | 65% | 1015.3 hPa | 0 mm | - | 218 W/m² | - |
| 1777493702 | 12.78° C | 65% | 1015.6 hPa | 0 mm | - | 194 W/m² | - |
| 1777493402 | 12.78° C | 65% | 1015.6 hPa | 0 mm | - | 189 W/m² | - |
| 1777493102 | 12.22° C | 66% | 1015.5 hPa | 0 mm | - | 130 W/m² | - |
| 1777492802 | 12.78° C | 66% | 1015.4 hPa | 0 mm | - | 78 W/m² | - |
| 1777492503 | 13.33° C | 65% | 1015.6 hPa | 0 mm | - | 136 W/m² | - |
| 1777492202 | 13.33° C | 64% | 1015.5 hPa | 0 mm | - | 214 W/m² | - |
| 1777491902 | 12.22° C | 66% | 1015.4 hPa | 0 mm | - | 253 W/m² | - |
| 1777491602 | 12.22° C | 67% | 1015.7 hPa | 0 mm | - | 131 W/m² | - |
| 1777491302 | 12.78° C | 67% | 1015.5 hPa | 0 mm | - | 111 W/m² | - |
| 1777491003 | 13.33° C | 66% | 1015.4 hPa | 0 mm | - | 120 W/m² | - |
* Rain latest hour (hover to see other rain measurements)
** Current wind speed in m/s (hover to see current wind gust speed)